Voltar ao catálogo

KUIPER-00234

AtivoComunicaçõesLEO
NORAD 68581·PAYLOAD·🇺🇸 United States

Lançado Apr 4, 2026 de Cape Canaveral Space Force Station

Loading…

Próximas Passagens (próximas 24 horas)

TLE

AtualizadoSource: CelesTrak SupGP

Época: Sep 14, 2026, 21:40 UTC

1 68581C 26072J   26257.90331019 -.00015558  00000+0 -20369-2 0  2577
2 68581  51.8984 153.9142 0001273  82.7580 243.1050 14.79939406    11

Acompanhe KUIPER-00234 em tempo real com AllMySat

Download on the App Store